Home > Weather > Poznan > Past weeks

Flag for Poland Past Weather in Poznan, Poland — Yesterday and Last 2 Weeks

Now
75 °F

Scattered clouds.


Feels Like: 78 °F
Forecast: 60 / 77 °F
Wind: 8 mph from West

Location: Poznan Airport

Current Time: Jul 30, 2016 at 1:13:51 PM

Latest Report: Jul 30, 2016 at 12:30 PM


Visibility: N/A

Pressure: 29.89 "Hg

Humidity: 57%

Dew Point: 59 °F

Location of PoznanLocation

Past Weather in Poznan — Graph

°F

Poznan Temperature Yesterday

Maximum temperature yesterday: 77 °F (at 5:30 PM)
Minimum temperature yesterday: 61 °F (at 4:30 AM)
Average temperature yesterday: 69 °F

High & Low Weather Summary for the Past Weeks

 TemperatureHumidityPressure
High86 °F (Jul 26, 1:00 PM)94% (Jul 16, 2:00 AM)30.21 "Hg (Jul 16, 2:00 AM)
Low52 °F (Jul 17, 5:00 AM)36% (Jul 20, 6:00 PM)29.86 "Hg (Jul 29, 1:30 PM)
Average68 °F72%30.05 "Hg
* Reported Jul 15 12:00 PM — Jul 30 12:00 PM, Poznan, Weather by CustomWeather, © 2016

Note: Actual official high and low records may vary slightly from our data, if they occured in-between our weather recording intervals... More about our weather records

Advertising

Poznan Weather History for the Previous 24 Hours

Scroll right to see more
 ConditionsComfort  
Time TempWeatherWind HumidityBarometerVisibility
12:00 PM
Sat, Jul 30
75 °FScattered clouds.12 mph65%29.89 "HgN/A
11:30 AM73 °FPartly sunny.8 mph65%29.89 "HgN/A
11:00 AM73 °FScattered clouds.9 mph65%29.89 "HgN/A
10:30 AM72 °FScattered clouds.7 mph69%29.89 "HgN/A
10:00 AM72 °FPassing clouds.6 mph69%29.89 "HgN/A
9:30 AM70 °FPassing clouds.7 mph73%29.89 "HgN/A
9:00 AM70 °FPassing clouds.9 mph78%29.89 "HgN/A
8:30 AM68 °FSunny.7 mph83%29.89 "Hg10 mi
8:00 AM66 °FPassing clouds.6 mph88%29.89 "HgN/A
7:30 AM64 °FPassing clouds.6 mph88%29.89 "HgN/A
7:00 AM64 °FPassing clouds.7 mph88%29.89 "HgN/A
6:30 AM64 °FLight rain. Passing clouds.5 mph88%29.86 "HgN/A
6:00 AM64 °FLight rain. Passing clouds.5 mph88%29.86 "HgN/A
5:30 AM64 °FClear.3 mph88%29.86 "Hg10 mi
5:00 AM64 °FClear.5 mph88%29.86 "Hg10 mi
4:30 AM64 °FClear.5 mph88%29.86 "Hg10 mi
4:00 AM64 °FClear.3 mph88%29.86 "Hg10 mi
3:30 AM64 °FClear.3 mph83%29.86 "Hg10 mi
3:00 AM64 °FClear.3 mph88%29.86 "Hg10 mi
2:30 AM64 °FClear.3 mph88%29.86 "Hg10 mi
2:00 AM66 °FClear.5 mph83%29.89 "Hg10 mi
1:30 AM66 °FClear.5 mph83%29.89 "Hg10 mi
1:00 AM66 °FClear.5 mph88%29.89 "Hg10 mi
12:30 AM64 °FClear.1 mph88%29.89 "Hg10 mi
12:00 AM64 °FClear.1 mph88%29.89 "Hg10 mi
11:30 PM
Fri, Jul 29
66 °FClear.1 mph88%29.89 "Hg10 mi
11:00 PM68 °FClear.1 mph83%29.89 "Hg10 mi
10:30 PM68 °FClear.3 mph88%29.89 "Hg10 mi
10:00 PM68 °FClear.1 mph88%29.89 "Hg10 mi
9:30 PM70 °FSunny.2 mph83%29.89 "Hg10 mi
9:00 PM72 °FSunny.2 mph73%29.86 "Hg10 mi
8:30 PM73 °FSunny.1 mph65%29.86 "Hg10 mi
8:00 PM75 °FSunny.5 mph61%29.86 "Hg10 mi
7:30 PM75 °FPassing clouds.8 mph61%29.86 "HgN/A
7:00 PM77 °FScattered clouds.7 mph54%29.86 "HgN/A
6:30 PM77 °FScattered clouds.8 mph54%29.86 "HgN/A
6:00 PM77 °FPassing clouds.9 mph54%29.86 "HgN/A
5:30 PM77 °FPassing clouds.1 mph54%29.86 "HgN/A
5:00 PM75 °FScattered clouds.2 mph61%29.86 "HgN/A
4:30 PM75 °FScattered clouds.2 mph61%29.86 "HgN/A
4:00 PM73 °FSprinkles. Scattered clouds.10 mph61%29.86 "HgN/A
3:30 PM75 °FScattered clouds.5 mph65%29.86 "HgN/A
3:00 PM73 °FThunderstorms. Partly sunny.8 mph65%29.86 "HgN/A
2:30 PM75 °FPassing clouds.10 mph61%29.86 "HgN/A
2:00 PM75 °FPassing clouds.10 mph65%29.86 "HgN/A
1:30 PM75 °FScattered clouds.12 mph65%29.86 "HgN/A
1:00 PM73 °FScattered clouds.9 mph74%29.89 "HgN/A
Weather by CustomWeather, © 2016

See weather overviewHow to use our weather pages